Wetbulb
54.90 55.36 55.27 55.05 54.72 54.34 54.31 54.87 54.95 54.79 54.66 54.87 54.92 55.05 54.93 54.97 55.51 55.69 56.14 56.33 56.51 56.42 56.50 56.74 57.39 57.95 59.85 56.16 56.03 65.32 67.52 66.27 60.07 58.37 56.76 53.86 53.66 53.45 50.62 51.46 51.99 50.62 51.81 52.54 53.37 53.26 53.54
54.58 54.58 54.43 54.19 53.89 53.65 53.69 53.69 54.08 54.42 54.53 54.92 54.88 54.38 54.41 54.63 54.83 55.44 55.90 55.96 55.83 55.59 55.84 56.39 57.18 57.58 59.16 52.90 59.67 64.28 62.76 59.43 58.98 58.55 55.60 56.35 55.29 56.00 53.30 52.48 52.13 52.99 54.18 57.82 57.79 55.19 59.45
54.06 53.97 53.82 53.66 53.30 53.04 53.02 53.15 53.23 53.48 54.17 54.47 54.72 54.16 54.00 54.07 54.57 54.91 55.55 55.00 54.79 55.16 56.06 56.52 57.40 60.00 56.56 55.01 60.24 63.29 60.00 58.20 58.22 57.97 54.94 56.47 57.78 55.85 55.45 52.90 54.98 58.64 56.93 59.89 59.92 59.20 60.15
53.47 53.38 53.23 53.01 52.80 52.63 52.71 52.85 52.86 53.00 53.18 53.96 54.37 54.20 53.71 53.88 54.09 54.46 55.02 54.73 54.69 56.84 56.52 57.07 58.11 60.28 54.19 58.99 61.78 61.50 59.76 57.28 58.46 57.88 57.88 58.53 58.45 56.57 55.42 55.70 53.78 53.10 56.67 53.20 60.13 61.12 61.37
52.53 52.60 52.64 52.55 52.42 52.16 52.05 52.18 52.26 52.43 52.68 52.91 53.71 53.56 53.44 53.44 53.69 54.02 54.18 53.88 55.77 56.92 56.82 58.38 60.37 57.70 53.15 59.40 58.35 61.26 61.43 57.23 58.02 57.45 57.82 57.22 57.46 54.99 54.55 51.86 50.40 51.81 47.95 50.94 56.48 61.07 60.81
51.72 52.09 52.03 52.09 51.92 51.53 51.44 51.65 51.76 51.84 52.20 52.43 53.09 53.21 53.09 53.13 53.19 53.67 53.14 53.45 58.29 58.46 59.77 60.88 59.74 55.09 56.06 55.74 59.82 61.29 62.08 59.89 57.53 56.69 55.61 55.10 54.82 52.10 52.19 50.65 45.75 47.94 48.24 49.70 52.66 58.55 60.31
51.17 51.67 51.55 51.70 51.65 51.45 51.32 51.28 51.38 51.55 51.74 51.82 52.20 52.78 52.72 52.97 53.18 52.76 54.37 57.73 55.72 56.97 56.75 54.32 55.48 52.77 55.17 58.14 59.22 58.40 61.17 59.50 58.19 55.37 51.19 53.75 50.32 48.29 49.91 51.47 51.81 50.81 49.52 49.09 55.11 58.94 58.18
50.81 51.21 50.81 50.87 50.92 51.19 51.76 51.68 51.13 51.30 51.40 51.72 51.97 51.95 52.58 52.76 52.68 52.25 55.81 53.23 54.02 55.58 51.74 56.64 56.66 56.87 57.69 58.22 54.59 56.99 60.56 55.64 54.42 50.62 52.07 50.78 48.10 51.20 51.44 51.11 50.80 50.56 49.77 53.09 55.86 57.61 58.44
50.20 50.31 50.32 50.26 50.17 50.39 51.05 51.66 51.55 51.57 51.64 51.81 51.98 52.02 52.40 52.45 51.68 54.93 52.97 52.61 57.22 57.59 52.45 52.81 54.84 54.86 57.20 58.03 54.58 55.40 57.20 55.44 52.61 50.67 50.49 48.96 50.30 51.94 51.29 50.34 49.82 50.78 51.07 53.76 54.07 56.41 57.27
50.05 50.24 50.16 49.81 49.71 50.54 50.58 50.86 50.71 50.94 51.28 51.52 51.36 51.59 51.77 51.05 52.46 53.91 52.71 56.88 57.84 58.10 49.48 50.69 50.78 53.05 54.76 56.27 53.27 58.00 57.64 55.22 51.95 49.98 50.46 50.54 52.47 50.52 50.75 49.82 51.47 48.60 52.76 54.82 55.36 53.76 50.53
49.94 50.15 50.03 50.05 50.35 50.80 50.82 50.31 50.36 51.06 51.29 51.26 51.09 51.48 51.11 50.39 51.83 52.01 54.78 57.74 58.42 56.86 40.15 50.19 52.47 57.87 55.91 54.13 54.95 55.12 57.87 54.95 50.51 50.26 51.10 49.88 50.83 50.57 50.09 50.60 52.28 52.28 54.68 55.87 56.04 53.97 53.20
49.85 49.94 49.56 49.96 49.60 50.23 49.99 50.09 50.65 50.88 50.80 50.65 50.75 50.98 50.95 53.97 53.84 54.54 56.04 56.62 57.78 47.69 39.24 48.45 53.15 51.77 51.93 53.48 53.25 55.21 54.53 56.07 54.66 51.47 52.14 51.68 53.90 53.06 51.91 52.16 52.78 57.02 55.61 55.49 54.00 50.67 45.44
49.19 49.12 49.32 49.43 49.65 49.87 49.92 49.68 50.12 50.48 50.38 50.38 50.24 50.16 50.04 54.13 53.08 57.14 57.86 56.90 47.31 42.37 48.99 48.41 50.57 51.42 50.88 50.72 51.19 52.16 51.63 51.03 49.07 46.99 48.07 50.97 51.16 52.12 53.52 52.11 55.25 53.05 51.21 45.09 43.57 43.79 44.46
48.89 48.93 49.06 49.30 49.61 49.96 49.61 49.47 49.85 50.06 49.78 49.82 49.31 49.22 51.69 54.23 57.63 55.65 55.77 51.95 42.43 45.77 46.56 51.82 51.62 51.21 48.83 51.10 50.94 50.60 50.19 49.10 52.18 51.31 49.06 47.53 45.00 50.62 52.54 52.29 50.46 51.27 50.88 45.66 39.07 42.20 45.10
48.56 48.51 48.54 48.78 49.01 49.60 49.39 49.07 49.32 49.44 49.29 48.72 48.43 56.11 56.21 60.02 57.78 56.55 50.12 44.99 45.19 47.45 48.96 48.67 50.46 49.36 49.04 50.35 50.30 50.69 49.98 49.54 51.21 52.23 48.72 48.07 47.45 51.80 51.80 52.48 52.84 50.17 48.03 51.65 46.03 47.73 43.74
48.24 48.13 48.28 48.48 48.37 49.04 48.49 49.20 49.29 49.68 49.23 48.32 51.75 52.91 58.11 59.10 58.73 55.05 47.98 43.47 48.26 50.39 51.70 50.96 46.90 49.72 48.10 49.19 48.43 49.56 49.46 51.48 50.78 52.63 54.59 52.34 47.48 51.03 50.81 52.88 52.66 52.10 52.67 46.87 48.18 40.42 38.96
47.64 47.75 47.71 48.69 48.66 48.52 48.16 48.94 49.11 49.39 48.47 48.31 53.10 50.60 56.96 58.60 57.48 52.06 44.13 45.62 48.36 51.82 52.57 49.45 49.46 47.77 48.71 49.16 49.52 48.65 49.15 50.68 52.42 52.04 54.09 53.57 52.12 49.67 51.83 50.57 50.10 49.73 49.01 50.14 50.24 47.53 42.37
47.38 47.76 47.73 47.85 48.46 48.28 47.78 48.46 48.63 48.81 47.52 49.68 52.47 47.53 56.98 59.56 51.61 51.91 46.50 47.88 47.69 50.84 53.29 51.28 51.30 50.23 49.48 49.83 49.80 48.99 48.98 51.13 53.68 53.74 50.55 53.87 53.22 48.13 49.08 52.86 53.55 52.75 51.19 51.76 46.43 45.38 47.04
47.62 47.35 47.41 47.63 47.88 48.18 47.81 48.18 48.30 48.39 47.82 47.23 48.97 51.81 59.92 58.12 48.52 49.30 50.64 49.14 50.06 49.24 50.74 50.74 49.96 51.46 52.22 51.16 49.15 50.21 50.94 54.13 54.37 53.82 52.34 55.00 51.76 46.63 47.24 50.55 52.38 50.83 51.70 51.93 51.64 51.02 46.52
47.72 47.72 47.90 47.79 47.65 48.09 48.45 48.04 48.09 48.26 47.87 49.38 50.08 47.71 55.17 56.64 55.03 49.95 48.96 49.27 48.80 52.55 51.05 51.77 51.33 52.37 50.92 50.55 54.12 51.88 50.70 52.92 55.08 54.79 53.89 57.02 53.45 50.06 45.64 48.10 51.28 49.43 50.24 51.20 51.26 47.49 46.93
47.63 47.64 48.08 48.03 48.01 47.68 48.52 48.20 48.16 48.11 47.63 49.48 49.53 48.49 47.74 48.17 50.49 49.36 49.67 49.29 48.48 48.25 52.20 53.20 51.36 50.71 50.01 48.42 51.62 51.06 53.66 52.85 53.94 53.94 55.04 56.64 50.48 51.57 51.12 50.94 51.30 50.62 49.78 49.74 49.17 50.29 46.73
47.80 47.72 47.54 48.03 47.93 47.93 47.58 48.09 47.90 47.94 47.32 49.62 44.21 42.66 45.17 44.73 48.30 48.83 46.96 48.98 47.26 48.82 49.72 50.10 50.31 51.42 52.71 50.99 52.94 51.20 53.42 53.97 52.76 54.43 54.29 56.25 50.91 51.90 49.06 50.37 50.62 49.00 50.37 50.49 50.22 49.80 49.32
47.76 47.91 47.63 47.52 47.82 47.81 47.87 47.77 47.73 47.91 48.21 46.29 46.27 48.16 41.81 43.33 44.71 45.60 48.67 45.73 46.77 48.76 50.96 51.82 50.81 50.59 52.32 52.05 53.35 54.77 57.42 56.81 56.48 54.58 53.90 53.86 52.55 50.55 46.29 49.78 49.31 46.25 49.87 50.22 50.25 51.19 50.48
47.30 48.10 47.57 47.46 47.50 47.37 47.82 47.74 47.64 47.74 47.74 47.11 45.62 43.13 42.55 40.41 41.90 42.71 42.64 44.15 45.55 47.18 46.14 49.11 50.92 51.51 54.39 57.04 57.06 55.14 55.91 55.23 55.39 54.94 57.18 54.04 53.23 51.80 47.09 48.28 40.44 49.91 52.52 51.74 50.16 50.86 51.34
47.23 47.56 47.58 47.25 47.37 47.08 47.43 47.55 47.23 47.45 47.06 47.51 45.52 42.36 39.36 38.47 41.47 41.03 42.61 43.51 45.51 47.21 46.80 48.89 51.00 54.82 55.56 55.83 52.25 50.14 50.24 50.09 51.17 52.14 53.37 55.99 53.25 49.19 45.28 42.78 47.28 48.13 50.15 50.27 49.32 48.35 52.29
46.66 47.26 47.23 47.28 47.12 47.22 47.19 47.33 47.67 47.12 47.26 47.46 45.57 46.04 41.36 39.22 41.93 42.89 40.95 42.22 42.54 44.84 46.20 48.61 53.11 54.04 55.68 53.96 51.10 46.13 44.25 48.09 47.49 49.75 53.66 53.52 55.95 51.25 48.19 43.41 40.60 49.71 52.99 53.51 52.71 45.58 53.54
46.40 46.69 46.90 47.09 47.26 47.25 47.19 47.35 47.30 47.01 46.96 46.90 45.43 48.37 43.03 38.75 43.67 44.31 43.13 41.39 44.31 44.53 43.57 46.99 47.46 49.71 54.98 50.74 47.79 46.07 46.11 50.75 45.82 46.71 47.36 49.49 50.69 48.19 46.74 45.85 47.86 52.82 52.88 54.13 44.45 48.61 54.78
46.34 46.58 46.55 46.66 47.16 47.26 47.18 47.01 46.98 47.01 47.01 46.79 43.94 46.64 42.48 39.25 40.79 42.27 43.18 41.41 42.68 42.89 39.64 44.46 44.35 49.86 50.47 48.59 45.55 46.30 45.36 49.83 49.63 51.36 50.26 49.13 47.83 47.60 48.83 45.80 42.95 55.67 52.46 48.83 55.20 57.47 56.58
46.13 46.39 46.49 46.64 46.62 46.95 47.10 46.82 46.98 46.62 46.91 47.06 43.14 46.03 45.38 38.36 40.57 45.01 44.60 45.98 45.63 45.17 41.80 42.60 43.34 44.25 47.54 47.54 50.74 49.29 45.02 49.63 49.30 45.83 51.78 48.78 53.22 50.45 51.40 50.27 58.25 57.22 56.61 58.14 59.05 57.08 57.45
MSLP
1026.07 1025.56 1025.26 1025.04 1024.63 1024.17 1023.58 1023.16 1022.83 1022.43 1021.92 1021.35 1020.72 1020.08 1019.45 1018.81 1018.19 1017.60 1017.03 1016.55 1016.11 1015.63 1015.24 1015.01 1014.77 1014.60 1014.11 1011.46 1008.74 1009.11 1009.79 1010.16 1010.09 1009.63 1008.60 1008.03 1007.45 1006.78 1006.25 1006.18 1006.60 1006.30 1006.22 1006.50 1006.77 1006.96 1007.10
1026.19 1025.73 1025.52 1025.22 1024.81 1024.30 1023.74 1023.42 1022.97 1022.48 1021.94 1021.34 1020.68 1020.00 1019.34 1018.70 1018.03 1017.39 1016.76 1016.12 1015.72 1015.28 1014.93 1014.78 1014.60 1014.54 1012.99 1009.89 1008.66 1008.99 1009.20 1009.58 1009.01 1008.83 1008.22 1007.74 1007.00 1006.96 1006.19 1006.12 1006.10 1006.21 1006.47 1006.69 1006.98 1007.14 1007.67
1026.35 1026.01 1025.76 1025.38 1024.91 1024.47 1023.95 1023.54 1023.03 1022.49 1021.88 1021.19 1020.51 1019.86 1019.20 1018.57 1017.88 1017.14 1016.39 1015.70 1015.12 1014.72 1014.49 1014.43 1014.36 1013.66 1011.48 1008.82 1008.74 1008.94 1009.14 1008.85 1008.84 1008.52 1008.06 1008.02 1007.77 1007.29 1006.55 1006.46 1006.70 1006.51 1006.49 1006.98 1007.16 1007.61 1008.18
1026.67 1026.34 1025.97 1025.54 1025.09 1024.70 1024.13 1023.66 1023.17 1022.55 1021.82 1021.13 1020.42 1019.71 1019.05 1018.39 1017.70 1016.93 1016.15 1015.35 1014.62 1013.97 1013.91 1014.07 1014.10 1012.96 1009.69 1008.57 1008.73 1008.82 1008.81 1008.75 1008.92 1008.79 1008.41 1008.40 1008.15 1007.31 1006.64 1006.72 1006.56 1006.14 1005.87 1005.63 1007.24 1007.81 1008.66
1026.99 1026.57 1026.13 1025.71 1025.26 1024.84 1024.30 1023.77 1023.21 1022.54 1021.81 1021.10 1020.38 1019.65 1018.95 1018.22 1017.52 1016.70 1015.95 1015.18 1014.38 1013.96 1013.83 1013.90 1013.41 1011.91 1008.43 1009.23 1008.53 1007.90 1008.20 1007.86 1008.36 1008.62 1008.69 1008.75 1008.08 1006.96 1006.89 1006.05 1005.59 1005.51 1004.55 1004.92 1006.80 1007.78 1008.40
1027.33 1026.81 1026.38 1025.88 1025.40 1024.95 1024.42 1023.81 1023.19 1022.52 1021.79 1021.04 1020.26 1019.54 1018.84 1018.02 1017.30 1016.50 1015.63 1014.93 1014.33 1014.04 1013.64 1013.03 1012.18 1011.12 1008.14 1007.12 1007.19 1007.66 1007.98 1007.92 1007.69 1008.07 1008.26 1008.17 1007.23 1006.45 1005.80 1005.10 1003.94 1004.07 1004.28 1005.19 1005.80 1007.57 1008.11
1027.56 1027.01 1026.69 1026.16 1025.63 1025.07 1024.49 1023.84 1023.14 1022.40 1021.69 1020.99 1020.15 1019.31 1018.51 1017.70 1016.90 1016.28 1015.03 1013.92 1013.69 1012.79 1011.73 1009.34 1008.53 1007.69 1006.91 1006.87 1007.16 1007.19 1007.51 1007.60 1007.37 1007.31 1006.87 1007.02 1006.20 1005.22 1004.72 1004.74 1004.49 1004.22 1004.50 1005.16 1006.22 1008.22 1008.33
1027.76 1027.22 1026.81 1026.31 1025.80 1025.17 1024.51 1023.81 1023.06 1022.32 1021.61 1020.84 1020.01 1019.12 1018.13 1017.30 1016.36 1015.81 1015.06 1012.37 1011.59 1011.44 1009.54 1007.98 1007.77 1007.37 1007.14 1006.98 1006.42 1006.47 1006.98 1006.74 1006.72 1006.17 1006.47 1006.55 1005.44 1004.68 1005.01 1005.00 1005.30 1005.10 1004.95 1005.87 1007.86 1008.55 1008.75
1027.91 1027.40 1026.91 1026.37 1025.83 1025.21 1024.46 1023.69 1022.96 1022.19 1021.40 1020.56 1019.79 1018.94 1017.90 1016.72 1015.83 1015.05 1013.58 1012.26 1011.55 1011.16 1009.23 1006.58 1006.48 1006.41 1006.22 1006.82 1005.86 1005.50 1006.28 1005.90 1005.90 1005.75 1005.74 1004.97 1004.61 1004.91 1005.21 1005.20 1005.21 1004.94 1004.75 1005.95 1006.68 1008.51 1009.10
1027.99 1027.50 1026.95 1026.39 1025.83 1025.20 1024.46 1023.65 1022.83 1022.06 1021.20 1020.30 1019.51 1018.79 1018.03 1016.63 1015.21 1013.98 1012.02 1011.83 1011.66 1011.38 1008.55 1005.82 1005.80 1005.21 1005.70 1005.45 1005.27 1004.92 1005.45 1005.46 1005.48 1005.19 1005.09 1004.91 1004.67 1005.02 1004.82 1004.48 1004.62 1004.43 1005.13 1005.98 1007.15 1007.39 1007.29
1028.11 1027.61 1027.05 1026.47 1025.76 1025.13 1024.42 1023.66 1022.73 1021.86 1020.92 1019.99 1019.16 1018.43 1017.95 1017.84 1015.77 1013.33 1012.10 1011.87 1011.37 1011.01 1007.26 1005.17 1004.82 1004.88 1004.38 1004.39 1003.86 1004.89 1005.04 1005.12 1004.79 1004.82 1005.17 1004.00 1004.47 1004.58 1004.24 1003.89 1004.30 1004.63 1005.37 1006.01 1006.66 1006.51 1007.23
1028.14 1027.58 1027.04 1026.51 1025.91 1025.18 1024.36 1023.54 1022.61 1021.62 1020.57 1019.48 1018.56 1017.88 1017.31 1015.32 1015.30 1012.96 1012.45 1012.04 1011.30 1009.34 1005.76 1004.22 1004.18 1004.22 1004.22 1003.80 1003.72 1004.29 1004.99 1005.23 1004.65 1004.57 1004.68 1004.14 1004.67 1004.19 1003.68 1004.40 1004.59 1005.38 1005.73 1006.10 1006.32 1005.84 1005.76
1028.29 1027.73 1027.17 1026.57 1025.93 1025.19 1024.27 1023.41 1022.42 1021.39 1020.22 1018.84 1017.67 1016.70 1016.63 1014.86 1012.60 1012.56 1012.21 1011.04 1009.32 1006.83 1005.23 1003.96 1003.43 1003.65 1003.31 1003.28 1003.40 1003.74 1004.10 1004.37 1004.06 1004.26 1003.87 1004.05 1004.06 1004.55 1004.59 1004.62 1005.17 1004.95 1005.08 1004.60 1004.80 1004.79 1004.99
1028.35 1027.78 1027.31 1026.68 1026.02 1025.16 1024.18 1023.27 1022.33 1021.18 1019.86 1018.32 1016.77 1015.57 1014.86 1013.81 1013.13 1012.98 1011.77 1009.88 1007.21 1005.27 1004.41 1004.21 1003.67 1003.35 1003.00 1002.77 1003.01 1003.27 1003.42 1003.49 1003.80 1003.48 1002.90 1003.02 1003.89 1004.25 1004.44 1003.60 1004.14 1004.46 1004.48 1003.92 1004.13 1004.40 1004.71
1028.48 1027.98 1027.38 1026.72 1025.96 1025.06 1024.07 1023.27 1022.30 1021.01 1019.60 1017.96 1015.88 1013.62 1013.18 1012.61 1013.06 1012.81 1010.99 1008.30 1005.98 1005.06 1004.69 1004.17 1003.63 1003.13 1002.84 1002.66 1002.75 1002.89 1002.91 1002.82 1003.14 1003.56 1002.89 1002.70 1003.05 1004.46 1004.61 1004.37 1004.12 1004.60 1004.87 1005.24 1005.17 1005.74 1005.71
1028.50 1027.95 1027.34 1026.74 1025.94 1025.16 1024.41 1023.74 1022.43 1020.90 1019.29 1017.73 1015.69 1013.53 1012.12 1012.50 1012.82 1012.05 1009.89 1007.31 1005.87 1005.71 1005.26 1004.53 1003.63 1003.19 1002.22 1002.34 1002.67 1002.53 1002.42 1002.59 1002.66 1003.03 1003.21 1003.14 1003.32 1004.32 1005.02 1004.98 1005.23 1004.52 1005.10 1005.44 1005.23 1005.19 1005.16
1028.52 1027.94 1027.31 1026.67 1025.99 1025.36 1024.73 1023.95 1022.48 1020.90 1019.20 1017.16 1015.34 1012.55 1012.55 1012.56 1012.41 1010.69 1008.24 1006.85 1006.05 1005.79 1005.67 1004.89 1004.14 1003.81 1003.12 1002.14 1002.21 1001.99 1001.84 1002.36 1002.64 1003.01 1003.46 1003.53 1003.69 1004.71 1005.01 1004.55 1004.12 1005.26 1005.00 1005.51 1005.80 1006.09 1005.38
1028.49 1027.92 1027.33 1026.77 1026.08 1025.51 1024.86 1023.94 1022.59 1021.35 1019.64 1017.12 1015.24 1011.94 1012.18 1012.34 1010.73 1009.07 1007.66 1006.88 1006.72 1005.80 1005.56 1005.24 1004.95 1004.52 1004.05 1003.47 1002.51 1001.85 1001.73 1001.93 1002.61 1002.89 1003.44 1004.01 1004.01 1003.82 1004.28 1005.07 1005.22 1004.67 1004.36 1005.21 1005.26 1005.96 1006.11
1028.56 1028.02 1027.43 1026.84 1026.34 1025.66 1024.87 1024.04 1022.71 1021.85 1021.09 1019.41 1015.89 1013.08 1011.76 1011.69 1009.67 1008.34 1007.68 1007.37 1006.73 1006.11 1005.52 1005.16 1004.85 1004.56 1004.38 1003.79 1003.11 1002.01 1001.86 1002.61 1003.17 1003.14 1002.91 1004.32 1004.13 1004.04 1004.79 1005.45 1005.58 1005.02 1005.26 1005.49 1006.09 1006.39 1006.15
1028.44 1028.01 1027.47 1026.83 1026.28 1025.83 1025.03 1024.07 1022.95 1021.83 1020.88 1019.80 1016.48 1013.07 1011.32 1010.93 1010.97 1010.29 1009.05 1007.55 1006.85 1006.41 1006.00 1005.58 1005.08 1004.89 1004.61 1004.03 1003.43 1002.71 1002.25 1003.40 1003.76 1003.50 1004.04 1004.03 1003.74 1003.67 1003.44 1003.42 1003.68 1004.64 1005.24 1005.67 1005.95 1006.16 1005.73
1028.24 1027.86 1027.41 1026.81 1026.31 1025.97 1025.24 1024.31 1023.22 1022.08 1020.50 1019.72 1016.99 1015.49 1015.64 1012.29 1010.99 1011.29 1010.30 1009.06 1007.77 1006.83 1006.51 1006.22 1005.35 1004.98 1004.68 1004.24 1003.47 1003.02 1002.75 1003.68 1004.10 1004.40 1004.38 1004.28 1003.73 1003.75 1003.38 1003.39 1003.64 1004.11 1004.58 1005.35 1005.64 1005.81 1005.83
1028.03 1027.77 1027.30 1026.69 1026.38 1025.96 1025.42 1024.64 1023.75 1022.65 1020.85 1018.98 1018.75 1018.65 1017.10 1014.67 1013.25 1011.85 1010.69 1009.35 1009.20 1008.61 1007.87 1006.33 1006.39 1006.26 1005.75 1004.96 1004.21 1003.36 1002.95 1003.07 1003.08 1004.35 1004.30 1004.50 1003.79 1004.07 1004.32 1004.25 1004.19 1004.36 1004.70 1005.16 1005.50 1005.66 1005.84
1027.86 1027.64 1027.29 1026.82 1026.43 1025.97 1025.43 1024.88 1024.28 1023.47 1021.99 1020.54 1020.94 1020.14 1019.72 1015.38 1013.48 1012.28 1011.29 1011.50 1010.51 1010.24 1008.63 1008.25 1008.12 1007.40 1006.15 1006.16 1006.30 1005.42 1004.00 1003.51 1003.57 1003.68 1004.04 1004.23 1004.23 1004.42 1004.32 1004.97 1005.01 1005.02 1005.00 1005.28 1005.33 1005.77 1006.06
1027.61 1027.41 1027.15 1026.92 1026.24 1026.07 1025.48 1025.05 1024.65 1024.18 1023.77 1022.36 1022.40 1022.24 1019.62 1015.93 1014.36 1013.26 1013.13 1012.59 1011.61 1010.89 1010.33 1009.36 1008.99 1008.11 1007.97 1007.62 1006.33 1005.74 1004.41 1004.29 1004.03 1004.47 1004.47 1004.33 1004.41 1004.57 1005.07 1005.87 1005.19 1004.84 1005.43 1005.80 1005.92 1005.86 1006.28
1027.59 1027.20 1026.95 1026.60 1026.36 1025.96 1025.52 1025.27 1024.93 1024.53 1024.16 1022.78 1023.29 1022.86 1021.53 1018.12 1015.73 1014.26 1013.90 1013.16 1012.29 1011.14 1010.38 1009.53 1009.20 1009.33 1009.08 1007.67 1005.63 1004.57 1004.31 1004.57 1004.05 1004.90 1004.75 1004.92 1004.30 1005.01 1005.49 1005.70 1006.00 1005.78 1005.73 1006.00 1005.93 1005.75 1006.10
1027.54 1027.10 1026.72 1026.39 1026.18 1025.85 1025.46 1025.27 1024.97 1024.64 1024.30 1023.00 1023.63 1023.28 1022.56 1020.04 1016.02 1016.19 1015.20 1014.11 1012.94 1011.69 1010.66 1009.72 1009.68 1009.92 1009.32 1007.60 1005.98 1004.40 1003.36 1003.56 1003.74 1004.50 1004.38 1005.02 1004.61 1005.20 1005.42 1005.50 1005.15 1004.32 1005.47 1006.18 1006.37 1005.89 1005.94
1027.16 1026.85 1026.57 1026.14 1025.92 1025.63 1025.35 1025.12 1024.90 1024.73 1024.29 1023.61 1023.38 1023.61 1022.67 1020.80 1017.39 1017.24 1015.48 1015.35 1014.46 1013.47 1012.40 1011.32 1011.32 1009.95 1009.38 1007.70 1006.89 1005.73 1004.04 1003.02 1002.70 1003.43 1004.40 1004.48 1004.27 1004.27 1004.50 1004.60 1004.21 1004.84 1005.78 1006.37 1006.35 1006.30 1006.74
1026.79 1026.54 1026.21 1025.97 1025.65 1025.38 1025.15 1024.89 1024.74 1024.60 1024.30 1023.84 1023.47 1023.78 1023.13 1021.49 1018.87 1018.00 1017.34 1016.55 1015.56 1014.81 1013.87 1012.82 1011.89 1010.82 1009.54 1008.77 1008.22 1007.13 1006.22 1004.55 1003.42 1002.76 1003.47 1003.55 1003.94 1003.77 1003.87 1003.89 1004.26 1005.04 1006.08 1006.02 1006.08 1006.58 1007.19
1026.37 1026.08 1025.83 1025.60 1025.35 1025.14 1024.84 1024.64 1024.48 1024.37 1024.22 1024.07 1022.99 1023.20 1023.64 1023.02 1019.50 1018.39 1017.87 1017.33 1016.65 1016.12 1015.99 1014.89 1013.48 1012.86 1011.79 1010.51 1008.93 1008.29 1008.04 1006.03 1004.99 1004.71 1005.16 1004.50 1003.97 1003.66 1003.97 1003.83 1004.35 1005.10 1005.29 1006.02 1006.35 1006.86 1007.52
Wind_Speed
19 19 20 20 20 20 20 19 19 20 20 20 21 21 21 21 21 21 21 20 19 18 15 12 11 10 8 8 1 7 8 11 12 11 9 10 11 9 10 8 10 11 7 7 5 5 9
19 20 20 20 20 21 21 21 20 19 19 19 20 22 22 22 22 21 21 20 19 18 16 12 9 8 8 9 4 3 9 13 11 11 8 9 5 3 5 7 10 5 4 5 5 10 11
20 20 20 20 21 21 21 22 22 22 21 21 21 22 23 23 23 23 22 22 21 19 14 11 6 6 8 8 2 6 10 9 6 6 8 3 1 9 6 8 5 8 10 9 8 12 12
19 19 20 20 21 21 22 22 22 23 23 22 22 22 24 24 24 24 23 23 22 16 6 7 6 6 7 4 4 7 9 7 5 4 2 1 3 3 7 5 7 10 10 13 11 13 11
19 19 20 20 21 22 22 22 22 23 24 24 22 23 24 25 25 25 23 23 17 4 3 8 7 7 5 7 7 11 11 6 8 6 4 1 6 4 7 12 11 9 12 10 11 4 13
19 19 19 20 21 22 23 23 23 23 24 25 23 23 23 25 25 23 24 17 1 4 6 6 4 7 7 8 7 6 10 8 7 8 7 8 8 10 11 11 13 13 7 7 12 10 10
19 19 20 20 21 22 23 23 24 25 25 25 26 25 25 25 24 22 15 5 7 8 8 9 2 5 5 3 5 9 9 12 9 9 12 11 11 13 14 14 6 2 7 8 8 2 10
19 20 20 21 22 23 22 23 25 25 26 26 26 27 27 26 25 23 8 6 4 7 9 15 15 13 8 2 5 10 11 13 10 12 8 8 14 9 3 6 9 6 8 11 6 4 10
18 19 20 21 22 23 24 23 24 24 25 25 25 26 27 28 28 8 8 9 2 9 8 7 12 12 13 13 11 14 16 15 12 12 12 14 7 5 12 11 12 10 12 12 9 10 1
18 19 20 20 22 21 25 26 26 26 26 26 25 25 24 30 10 7 5 2 6 6 8 10 9 8 11 12 11 11 17 11 8 12 12 10 4 8 12 10 15 11 6 9 13 14 5
19 20 21 21 21 23 23 26 28 28 27 27 26 24 23 15 12 6 6 6 8 5 7 7 8 5 10 20 13 13 14 11 13 11 7 7 11 12 12 12 13 11 10 11 14 6 10
19 20 20 20 23 24 24 25 27 28 29 29 28 26 23 5 6 11 10 9 5 8 7 5 7 11 15 19 9 13 12 10 6 7 10 4 1 8 3 5 5 13 12 10 8 6 11
19 21 22 22 23 23 24 25 28 29 31 32 31 29 15 4 2 3 7 6 8 9 4 8 7 10 17 15 13 16 16 17 12 12 12 8 11 6 13 13 14 11 13 9 9 8 1
18 19 21 22 23 24 25 26 28 30 32 33 35 29 7 6 4 7 5 8 11 1 10 2 2 7 15 17 16 14 17 17 17 12 11 12 12 13 7 9 11 14 9 8 4 4 4
19 19 21 23 24 25 26 28 29 31 33 36 32 3 3 2 6 5 7 14 8 9 2 5 5 10 14 16 14 17 16 17 17 13 8 9 10 7 3 4 4 10 10 6 4 2 8
17 19 21 22 24 25 27 28 29 32 34 35 9 5 4 4 6 7 9 17 14 3 4 4 9 3 13 17 15 19 18 17 16 17 12 7 8 8 7 7 6 5 10 6 8 5 6
16 18 20 20 21 23 27 27 29 32 36 31 6 6 6 7 5 6 11 16 17 6 5 4 2 4 3 8 20 16 16 8 19 17 11 5 9 10 8 11 12 7 8 1 4 5 6
17 18 19 21 21 22 26 27 28 31 35 9 6 4 3 4 7 4 10 12 5 13 11 8 5 6 8 8 12 20 20 17 11 14 16 10 7 12 15 5 4 5 4 8 6 7 3
15 16 18 20 21 21 24 26 27 29 26 8 9 4 3 4 6 6 4 10 11 13 14 12 11 6 6 7 6 16 18 9 9 15 15 11 8 8 7 6 6 9 8 5 2 3 8
15 16 17 18 20 20 22 24 27 29 28 7 6 5 2 3 1 6 7 11 9 5 11 14 16 15 16 15 10 6 13 6 9 13 6 11 10 14 11 13 13 14 12 12 10 6 8
15 16 17 17 18 20 21 23 26 28 30 7 3 5 5 4 2 10 6 6 9 5 4 6 10 15 16 15 15 13 10 8 7 8 8 9 13 15 15 6 10 13 14 14 13 12 10
13 15 16 17 17 18 20 20 22 27 32 2 7 6 7 7 8 9 3 2 8 8 5 4 8 9 9 15 12 8 11 9 8 11 11 7 8 11 10 9 10 12 10 12 12 11 12
13 13 14 15 16 17 17 18 19 22 21 5 5 1 4 5 5 6 3 6 5 10 4 5 8 13 9 7 11 13 10 4 3 6 11 10 9 12 11 10 9 9 11 12 10 8 9
13 14 12 14 14 15 16 16 17 16 18 5 4 3 6 7 6 6 10 11 12 10 12 12 15 10 7 15 13 13 6 2 6 5 3 10 11 5 6 9 13 5 7 1 6 8 6
13 13 11 12 13 13 14 15 14 13 15 7 4 3 4 8 9 10 8 11 12 11 14 11 9 7 13 11 7 6 9 10 9 1 4 5 8 5 5 3 11 5 7 7 8 7 5
14 13 12 12 12 12 12 13 13 12 12 8 3 3 2 7 2 7 13 11 9 9 11 5 5 9 5 5 7 12 13 14 15 10 2 5 10 8 9 11 16 6 10 6 3 9 6
13 13 13 12 12 11 12 11 12 11 9 8 2 5 3 7 6 6 5 9 7 7 7 8 8 5 4 5 7 6 10 5 15 18 11 14 13 14 10 8 5 9 11 9 8 3 7
14 13 13 13 13 12 10 10 9 9 9 7 3 1 6 6 14 15 14 13 10 8 8 11 9 6 6 6 3 2 5 6 7 10 18 12 12 9 9 12 6 14 11 8 7 7 9
15 14 14 13 13 12 10 10 9 9 8 8 5 2 1 6 9 17 19 19 18 16 11 5 9 7 4 6 3 5 3 4 4 6 2 7 3 5 8 5 9 16 4 7 6 10 9
Wind_Direction
19 17 16 13 10 8 7 4 359 355 351 348 348 347 344 341 337 334 330 326 322 319 314 305 299 304 275 230 218 73 118 156 183 201 212 198 194 203 200 187 183 236 160 188 174 190 206
19 17 13 11 8 6 4 0 357 353 348 346 346 345 342 339 336 332 326 322 317 313 304 292 287 297 257 248 72 103 146 167 187 208 195 202 204 261 156 178 220 149 197 154 202 174 165
18 16 12 9 8 5 1 357 354 352 348 345 344 343 340 337 334 331 325 321 317 308 290 270 254 256 261 272 70 145 168 190 193 217 182 184 263 224 162 158 150 155 149 145 142 154 157
16 13 11 8 7 3 359 355 352 349 347 344 342 339 338 336 333 329 325 322 317 309 261 219 212 243 271 115 155 187 183 167 192 195 320 299 247 270 248 93 180 196 207 177 143 165 163
14 11 9 7 5 1 357 354 351 348 346 343 340 336 334 332 332 327 325 320 312 356 147 173 208 249 248 133 212 200 197 183 162 181 184 178 245 245 185 208 188 198 195 202 146 193 162
13 8 7 6 5 2 356 353 350 347 344 341 338 334 331 329 329 325 322 303 304 195 185 220 262 246 225 192 137 153 193 200 166 149 166 211 217 216 219 216 206 183 209 184 173 169 200
11 10 6 3 2 0 357 354 349 346 343 340 338 333 330 327 325 325 313 214 212 183 213 241 155 260 147 170 175 193 175 188 199 208 212 205 229 215 201 219 356 113 209 178 83 124 213
10 5 5 2 359 355 352 351 348 344 340 336 336 333 329 327 323 321 272 284 16 356 287 228 244 247 250 310 219 179 181 196 198 211 196 204 229 232 235 203 213 218 196 121 117 173 232
8 4 3 0 357 353 350 349 346 343 338 334 333 331 330 326 319 280 307 272 315 333 257 243 220 230 214 206 221 182 194 205 205 216 207 245 90 170 187 181 202 215 209 163 130 139 207
6 3 1 358 355 351 349 348 345 342 336 332 332 331 332 330 288 342 283 109 285 300 266 163 197 210 192 200 213 198 201 199 201 225 213 236 180 200 200 212 211 180 211 169 154 191 190
6 4 1 357 353 349 348 346 343 339 334 330 328 328 328 323 310 262 22 310 313 228 271 113 145 104 168 191 133 181 191 208 218 193 204 147 186 203 210 194 209 97 155 162 174 208 169
2 1 359 355 354 349 348 344 340 337 333 328 325 324 324 229 221 265 304 291 239 231 242 161 147 177 174 205 196 138 186 229 246 213 222 271 129 222 133 131 179 130 138 159 205 222 234
5 1 356 354 355 349 348 345 341 337 333 328 325 318 307 247 315 331 314 210 216 244 100 168 185 188 191 183 177 181 185 195 193 193 199 186 172 140 162 120 150 179 180 199 211 198 290
4 3 359 356 354 351 351 347 341 337 334 329 326 313 151 247 277 270 255 218 235 225 226 72 234 197 204 185 190 186 191 195 217 227 193 191 169 168 182 211 175 198 204 285 235 234 85
1 359 357 356 354 351 353 347 342 339 335 332 315 315 232 176 227 243 222 218 229 243 306 242 237 220 200 203 206 196 204 211 196 215 226 208 145 135 185 162 202 166 224 17 296 159 260
357 356 356 353 354 353 351 344 343 341 338 333 316 302 24 349 181 215 217 236 242 238 273 238 254 251 213 199 202 197 195 208 209 206 237 204 159 191 140 156 73 264 129 188 203 261 267
357 354 353 353 354 352 348 343 346 346 342 325 270 285 69 100 202 216 229 228 237 223 265 265 237 284 293 246 202 203 200 179 205 192 205 199 254 161 176 207 184 163 181 239 338 308 292
349 350 353 356 351 352 348 345 349 349 345 337 303 281 77 234 233 226 239 228 336 269 211 256 274 275 280 280 253 220 214 212 189 177 197 198 243 178 200 88 334 295 244 186 248 171 244
342 346 348 353 351 349 350 347 349 348 356 320 319 301 138 257 262 231 224 256 242 256 249 243 243 242 300 292 254 235 217 119 181 187 193 165 202 168 181 173 181 220 192 218 229 284 266
343 340 343 348 351 349 346 350 348 345 346 292 296 300 123 234 27 317 340 266 261 204 260 267 266 265 265 264 255 259 229 160 203 213 33 195 210 226 214 218 198 201 200 202 214 239 270
345 343 343 344 352 348 350 352 351 345 340 292 10 45 7 321 115 330 301 298 292 273 240 257 258 240 251 249 250 224 210 173 182 156 189 202 212 225 243 263 200 212 197 197 215 236 253
340 341 343 350 351 349 353 356 355 349 332 26 340 341 339 289 291 286 174 240 299 334 295 268 283 348 272 246 269 263 202 204 190 179 187 198 214 199 190 180 194 208 201 204 221 249 264
338 337 344 346 346 352 353 359 359 358 344 10 8 3 287 297 302 279 58 348 321 331 264 312 343 316 282 355 315 302 308 54 342 198 188 184 165 188 185 182 177 219 216 219 231 234 260
335 335 340 340 349 348 353 356 359 5 355 342 33 305 287 297 302 340 316 305 296 303 291 300 306 298 25 318 276 240 210 266 139 114 229 172 167 173 130 187 219 114 128 344 262 274 246
327 330 334 337 340 344 349 349 354 1 357 334 25 337 322 294 318 290 329 312 306 286 267 286 304 353 312 297 254 178 206 223 231 222 194 247 189 152 171 227 314 223 195 203 221 270 210
319 320 324 326 328 333 338 340 343 360 359 316 78 327 304 301 62 340 309 297 303 320 283 242 329 328 278 261 259 228 193 206 191 192 143 226 238 176 201 205 214 226 132 148 142 258 191
311 314 317 317 317 320 324 329 338 341 349 316 62 317 275 281 283 325 314 336 316 309 289 289 346 303 248 239 235 245 246 294 182 191 184 183 188 197 195 206 213 125 144 152 221 100 137
304 306 308 311 315 312 310 317 321 328 342 316 320 264 327 289 295 277 291 279 278 261 279 3 294 186 271 249 193 283 269 256 267 203 181 181 183 202 197 216 215 141 152 216 101 118 146
297 298 299 298 298 303 304 305 304 310 317 318 276 124 261 253 287 313 284 275 274 278 299 262 318 312 350 290 257 148 288 286 352 199 178 235 260 166 209 197 113 170 211 159 158 155 164